This is the latest recevied weather packets stored in our database for station/object KE4LOJ. If no packets are shown the sender has not sent any weather packets the latest 10 day(s).
| Time | Temp. | Humidity | Pressure | Rain* | Wind** | Luminosity | Snow |
|---|---|---|---|---|---|---|---|
| 1777566611 | 30° C | 52% | 1012.1 hPa | 0 mm | - | 1085 W/m² | - |
| 1777566309 | 29.44° C | 54% | 1012.4 hPa | 0 mm | - | 479 W/m² | - |
| 1777566006 | 29.44° C | 54% | 1012.4 hPa | 0 mm | - | 706 W/m² | - |
| 1777565701 | 28.89° C | 58% | 1012.3 hPa | 0 mm | - | 785 W/m² | - |
| 1777565398 | 28.89° C | 57% | 1012.2 hPa | 0 mm | - | 773 W/m² | - |
| 1777565094 | 28.89° C | 58% | 1012.4 hPa | 0 mm | - | 779 W/m² | - |
| 1777564790 | 28.33° C | 61% | 1012.6 hPa | 0 mm | - | 768 W/m² | - |
| 1777564490 | 28.33° C | 62% | 1012.6 hPa | 0 mm | - | 738 W/m² | - |
| 1777564186 | 28.33° C | 62% | 1012.8 hPa | 0 mm | - | 782 W/m² | - |
| 1777563883 | 28.33° C | 65% | 1012.9 hPa | 0 mm | - | 669 W/m² | - |
| 1777563579 | 28.33° C | 63% | 1012.7 hPa | 0 mm | - | 906 W/m² | - |
| 1777563279 | 28.33° C | 65% | 1012.9 hPa | 0 mm | - | 441 W/m² | - |
| 1777562976 | 27.78° C | 65% | 1012.8 hPa | 0 mm | - | 585 W/m² | - |
| 1777562671 | 27.78° C | 66% | 1012.8 hPa | 0 mm | - | 273 W/m² | - |
| 1777562366 | 27.22° C | 66% | 1013.2 hPa | 0 mm | - | 742 W/m² | - |
| 1777562061 | 27.22° C | 66% | 1013.1 hPa | 0 mm | - | 676 W/m² | - |
| 1777561759 | 27.22° C | 66% | 1013.1 hPa | 0 mm | - | 674 W/m² | - |
| 1777561455 | 27.22° C | 66% | 1013 hPa | 0 mm | - | 640 W/m² | - |
| 1777561150 | 26.67° C | 68% | 1013.1 hPa | 0 mm | - | 621 W/m² | - |
| 1777560850 | 26.67° C | 68% | 1013 hPa | 0 mm | - | 616 W/m² | - |
| 1777560548 | 26.67° C | 69% | 1012.8 hPa | 0 mm | - | 603 W/m² | - |
| 1777560246 | 26.11° C | 72% | 1012.8 hPa | 0 mm | - | 583 W/m² | - |
| 1777559944 | 25.56° C | 73% | 1012.8 hPa | 0 mm | - | 567 W/m² | - |
| 1777559643 | 25.56° C | 75% | 1013.1 hPa | 0 mm | - | 553 W/m² | - |
| 1777559341 | 25° C | 77% | 1013.1 hPa | 0 mm | - | 541 W/m² | - |
* Rain latest hour (hover to see other rain measurements)
** Current wind speed in m/s (hover to see current wind gust speed)